SCP
4 4 4 3 3 3 2 2 2 2 2 2 2 2 3 3 3 4 4 5 6 7 7 7 6 6 5 4 4 3 2 2 2 2 2 3 4 4 4 4 4 3 3
5 5 4 4 3 3 3 3 3 3 3 2 2 2 3 3 3 4 4 5 5 5 6 6 6 5 5 4 4 3 2 3 3 3 3 3 4 4 5 4 4 3 3
5 5 5 5 4 3 3 3 3 3 3 2 2 2 3 3 3 4 4 4 5 5 5 5 5 5 5 5 4 4 3 3 4 4 3 4 4 5 5 5 4 4 3
5 6 6 6 5 4 3 3 3 3 3 3 2 2 2 3 3 3 4 4 4 5 5 4 4 5 5 5 4 4 4 4 4 4 3 4 5 6 7 6 5 5 5
5 6 7 7 6 5 4 4 4 4 4 4 3 3 3 3 3 3 3 3 4 4 4 4 4 4 4 4 4 4 4 5 4 4 4 4 6 8 9 8 6 6 6
6 6 7 7 6 5 5 4 4 4 4 4 4 4 3 3 2 2 2 2 3 4 4 5 5 4 4 4 3 3 3 4 4 4 4 5 7 8 8 8 7 7 6
7 6 7 8 7 7 5 5 4 4 4 4 4 5 5 4 3 2 2 2 3 4 5 6 6 5 5 4 4 3 3 3 3 4 5 6 7 8 8 7 7 7 7
6 7 8 9 9 8 7 6 5 4 4 4 4 4 5 5 3 2 2 2 3 4 5 6 5 5 5 5 4 4 4 4 3 4 4 5 6 7 8 7 7 6 6
7 8 9 10 10 10 8 7 6 5 5 5 4 3 3 3 3 2 2 2 3 4 5 5 4 4 4 4 4 4 5 5 4 4 4 4 4 5 6 7 7 6 6
9 8 8 8 9 9 9 8 7 7 6 6 5 3 3 2 2 2 2 3 5 5 5 4 3 3 3 3 3 4 5 5 5 5 6 6 6 5 5 6 6 6 5
10 8 7 7 7 7 8 9 8 8 7 6 4 3 3 3 2 2 3 4 6 7 6 5 4 2 2 2 3 4 5 5 6 8 9 9 9 8 8 7 7 7 7
8 7 7 7 6 6 8 9 9 8 6 5 4 4 3 3 3 3 3 3 5 7 7 5 4 2 1 1 2 3 4 4 7 9 11 11 10 10 9 8 7 7 7
8 8 7 7 7 7 7 7 7 6 5 5 5 4 3 4 4 4 4 3 3 5 6 5 4 3 2 2 2 2 3 5 7 9 10 11 10 9 8 7 7 7 7
9 8 7 7 8 7 6 6 5 5 4 4 4 3 3 3 4 5 5 4 3 4 5 6 6 5 5 5 5 5 5 6 7 9 10 10 9 8 6 6 6 6 6
8 8 7 7 7 7 5 4 4 3 3 3 3 3 3 3 4 4 4 5 5 5 7 9 10 9 8 8 8 8 7 7 7 7 8 9 8 6 5 4 5 5 4
8 8 7 6 6 6 4 3 3 2 2 2 2 2 3 3 3 3 3 4 4 6 9 11 12 11 10 10 10 9 8 8 7 6 7 7 6 4 3 3 3 3 3
8 8 7 7 6 5 4 4 4 3 2 2 1 1 1 2 2 1 2 2 3 5 9 11 11 10 9 8 8 8 8 8 8 6 6 6 5 4 3 3 3 3 2
8 8 8 8 7 6 5 5 5 4 3 3 2 1 1 1 0 0 1 2 3 5 7 9 8 7 5 5 6 7 8 8 8 7 6 5 5 4 3 3 2 2 2
8 9 9 9 8 7 7 7 7 5 4 4 3 2 1 1 1 1 1 3 4 4 5 6 5 4 4 4 5 6 7 8 8 7 5 4 4 4 3 2 2 2 2
9 10 11 11 10 10 9 9 7 6 5 5 3 2 2 3 3 3 3 4 5 5 5 5 5 5 5 5 5 5 6 7 7 7 5 4 4 3 3 2 2 2 2
12 14 16 16 14 12 10 8 7 7 7 5 3 2 2 3 3 4 4 4 5 5 5 5 5 5 5 5 4 4 5 6 6 6 4 3 3 3 2 2 2 1 1
15 17 19 17 14 10 8 7 7 7 7 4 3 2 2 2 2 2 3 3 3 3 2 3 3 3 3 2 2 2 3 4 5 4 3 3 2 2 2 2 1 1 1
13 14 14 11 8 6 5 5 6 6 5 4 3 2 2 1 2 2 1 1 1 1 1 1 1 1 1 1 1 2 3 3 4 3 3 2 1 1 1 1 1 1 1
8 8 7 4 3 3 3 4 4 4 4 4 3 2 2 2 2 2 1 1 1 1 1 1 1 1 1 1 1 2 2 2 3 2 2 1 1 1 1 1 1 1 0
5 5 4 3 2 2 2 3 4 4 4 4 3 3 2 2 2 2 2 2 2 1 1 1 1 1 1 1 1 1 2 1 1 2 2 1 1 1 0 0 0 0 0
4 5 5 4 2 2 2 3 4 4 4 4 3 3 2 2 2 2 2 2 2 2 1 1 1 1 1 1 1 1 1 1 1 1 1 1 1 0 0 0 0 0 0
Wind_Speed
7 7 6 6 6 6 6 5 5 4 4 3 3 3 3 3 3 3 3 2 3 3 3 2 3 3 3 2 3 3 3 3 3 2 1 1 1 2 1 1 1 2 3
6 6 6 5 5 6 6 5 5 5 4 4 3 3 3 3 3 3 3 2 3 3 3 3 3 2 3 3 2 3 3 3 4 3 2 1 1 1 1 2 1 1 1
6 6 6 6 6 5 5 5 5 5 4 4 3 3 3 3 3 3 3 3 3 3 3 3 3 2 3 2 3 3 3 2 2 3 2 1 2 2 2 2 2 2 2
6 6 6 6 5 5 5 5 5 5 5 4 3 3 3 3 3 2 3 3 3 2 2 2 3 2 3 3 3 3 3 3 2 3 2 2 2 2 2 2 2 1 2
6 6 6 5 5 5 5 5 5 5 5 4 3 3 3 3 2 2 3 3 3 3 3 3 2 1 2 3 3 2 3 3 3 3 3 2 2 2 2 2 2 2 2
7 6 6 5 5 5 5 5 5 4 4 4 4 3 3 2 1 1 3 3 3 3 3 3 3 2 2 2 2 2 3 4 4 3 3 3 3 3 3 3 3 3 3
6 6 6 6 5 5 5 5 5 4 4 4 4 3 3 2 1 1 3 4 3 3 3 3 3 1 2 2 3 4 3 3 4 5 5 5 4 3 4 4 3 4 4
6 5 5 6 6 5 5 5 5 4 4 3 3 3 3 2 3 2 3 4 4 3 3 3 3 2 2 2 3 3 3 3 4 4 4 5 4 3 4 4 3 3 4
5 5 5 5 5 5 5 5 4 4 3 3 3 3 3 2 3 2 4 4 3 4 3 3 3 3 0 2 4 4 4 3 3 2 3 4 4 4 4 3 3 3 3
4 4 4 5 5 5 5 5 4 4 4 3 3 3 3 3 3 3 4 4 3 3 3 3 2 2 1 3 4 4 5 4 4 3 3 4 4 4 5 5 4 4 4
4 4 4 5 5 5 4 4 4 4 4 4 3 3 4 3 4 4 4 4 3 4 3 3 1 3 3 4 6 5 5 6 5 4 3 3 3 3 3 3 3 4 4
4 4 4 4 4 4 4 4 4 4 4 4 4 4 3 3 3 4 5 5 5 4 4 3 1 2 4 6 5 4 6 6 5 4 3 3 3 3 2 3 3 4 4
4 5 4 4 4 4 4 5 4 4 4 4 4 4 3 3 3 4 6 6 6 4 3 2 2 3 5 5 6 6 6 5 4 4 3 3 2 2 3 3 3 4 4
5 5 5 5 5 4 4 4 4 4 4 4 4 4 3 3 3 3 3 4 5 5 4 3 5 6 6 4 4 5 4 3 3 4 3 3 2 2 3 3 3 3 3
4 4 5 5 4 4 4 3 5 4 3 4 4 4 4 4 2 1 3 3 3 2 3 3 3 3 3 2 2 2 2 2 3 3 3 3 3 3 3 3 3 3 3
5 4 4 3 3 4 3 3 1 2 2 3 3 4 3 1 1 1 2 3 3 3 4 4 3 3 2 2 2 2 2 2 3 3 3 4 4 3 3 3 3 3 4
4 4 3 3 3 4 4 4 3 2 2 3 3 4 5 3 3 3 4 4 4 5 4 3 2 2 2 2 2 2 2 2 3 3 4 4 4 4 3 3 3 3 4
5 4 4 4 4 4 4 4 4 4 3 3 3 4 6 5 5 5 5 4 3 3 3 2 2 2 2 2 2 2 2 2 2 3 3 4 4 4 4 4 4 4 4
5 4 4 4 4 4 4 4 4 4 4 3 2 3 5 5 6 5 6 4 3 3 2 2 3 3 2 2 2 2 2 2 2 3 3 3 4 4 4 4 4 4 5
4 4 5 4 4 4 4 4 4 4 4 3 4 3 3 3 3 3 4 4 3 3 2 3 3 3 2 2 2 2 2 2 2 3 3 3 3 4 4 5 4 4 4
3 4 5 5 4 4 4 4 4 4 3 3 3 2 3 4 3 3 3 3 3 3 3 3 3 3 2 2 3 3 3 2 2 2 3 3 3 3 4 4 4 4 4
3 3 4 4 3 3 3 3 4 3 3 3 2 2 4 3 2 2 2 2 2 2 2 2 2 2 2 2 3 3 3 2 2 2 3 3 3 3 4 4 4 4 4
4 3 3 3 3 3 3 3 3 2 3 3 3 2 3 2 2 2 2 2 2 2 2 2 2 2 2 2 3 2 2 2 2 3 4 3 3 3 3 4 5 5 5
3 3 3 3 2 3 3 3 3 3 3 3 3 3 3 3 3 3 3 2 2 2 2 2 2 2 2 2 2 1 1 2 3 3 4 4 4 3 3 4 5 5 5
2 2 2 3 3 3 3 3 3 3 3 3 3 3 3 3 3 3 2 2 2 2 2 2 2 2 2 2 2 1 2 2 3 4 4 4 4 4 4 5 4 4 4
2 2 2 2 2 2 2 2 2 2 3 3 3 3 3 3 3 3 3 2 2 2 2 2 1 1 1 1 1 1 1 1 2 5 5 3 3 3 3 3 4 4 4
Wind_Direction
202 204 211 206 208 212 217 218 216 220 220 222 224 225 226 231 237 243 259 250 253 265 272 272 278 293 283 276 268 269 272 274 275 296 338 20 319 306 356 298 219 204 165
195 199 203 205 205 208 209 213 215 214 213 210 215 221 227 227 229 240 254 256 255 262 273 276 278 276 275 277 276 268 268 267 263 273 280 268 270 269 281 280 278 252 205
190 194 196 201 203 208 210 206 207 208 210 210 211 224 236 239 232 238 251 258 258 260 264 268 273 277 274 279 278 277 275 266 262 262 268 279 271 267 255 254 271 293 275
190 194 193 197 200 204 205 201 200 203 205 203 208 221 231 239 239 240 238 251 258 258 263 268 268 268 272 272 264 271 274 271 257 255 253 244 251 253 258 259 261 253 279
188 194 194 195 194 197 198 198 197 203 204 201 206 214 225 228 238 243 236 236 242 246 248 253 260 302 327 299 299 291 280 268 258 256 258 256 259 269 263 265 270 268 263
190 192 189 192 192 193 196 192 192 197 202 202 208 214 223 237 60 307 270 249 246 243 246 251 236 216 223 206 244 287 295 279 278 271 266 266 260 260 268 267 267 265 262
191 190 189 193 196 197 197 189 191 194 195 202 211 214 214 194 155 200 264 252 245 252 256 261 266 237 233 233 213 221 234 248 266 274 273 272 267 262 266 267 271 276 279
189 191 190 192 193 192 193 190 192 196 198 204 209 213 216 195 155 182 239 238 248 252 256 262 267 263 271 280 260 256 257 248 255 259 273 278 280 273 256 256 259 264 265
188 195 196 196 194 192 193 193 192 194 199 207 210 213 215 195 157 191 240 235 236 247 253 254 259 255 303 291 263 263 263 257 228 242 273 280 291 279 265 255 245 248 266
187 193 194 197 201 201 194 192 190 194 204 212 209 216 214 211 177 191 242 246 242 245 242 236 232 253 253 258 257 262 267 273 277 251 234 238 240 232 224 238 249 252 262
187 188 191 196 201 197 189 190 193 198 202 213 212 218 218 215 188 193 226 253 255 254 252 244 212 158 234 254 260 263 270 278 271 264 252 241 237 232 224 227 246 258 264
186 186 189 192 202 189 184 191 199 201 202 207 212 225 220 210 206 199 210 237 274 258 261 268 261 169 228 244 253 266 267 267 263 262 259 252 251 255 248 239 241 256 269
186 185 186 189 196 197 193 193 200 205 216 216 218 227 229 223 198 189 201 221 246 256 274 306 293 234 241 235 235 244 249 252 261 261 262 264 262 263 262 245 232 231 241
190 191 189 191 196 197 202 202 210 219 223 225 228 231 232 230 229 213 218 222 225 235 252 241 222 225 241 259 238 226 240 262 273 271 277 271 264 259 256 262 259 251 253
200 203 204 199 194 200 209 216 219 220 229 236 241 242 245 246 246 279 255 250 257 266 270 251 245 237 242 245 252 254 258 257 258 265 267 270 268 263 263 264 265 263 263
211 211 214 213 201 210 209 211 127 206 163 203 236 255 256 251 117 219 262 274 270 255 253 251 256 260 260 261 261 255 247 254 260 263 265 269 268 264 265 262 254 256 263
222 221 225 224 217 218 217 218 214 193 168 186 211 226 234 234 207 213 222 228 231 221 235 254 264 266 267 267 268 272 273 271 271 269 269 267 269 270 267 265 262 263 269
226 217 220 221 220 222 221 224 221 219 211 213 201 196 206 213 210 207 208 207 216 224 241 248 258 258 263 269 274 278 282 281 268 270 273 275 275 272 269 268 268 273 274
236 231 222 223 222 219 221 225 224 224 225 222 225 192 191 194 197 206 204 228 232 229 236 246 251 256 263 268 274 276 278 279 288 276 273 278 278 274 269 269 267 267 270
232 219 221 227 226 221 222 223 222 223 225 226 228 223 197 201 206 198 211 229 235 235 239 246 252 257 260 265 269 271 268 268 272 273 283 280 279 279 272 268 271 270 270
239 215 215 225 224 222 226 229 228 224 224 229 231 213 205 223 223 217 224 227 233 239 241 246 249 253 257 261 271 276 276 275 282 291 289 287 284 282 283 278 273 273 277
249 231 229 231 226 224 227 226 226 222 212 216 214 181 187 222 216 208 216 226 236 247 249 246 251 262 275 275 270 267 269 278 292 295 290 284 281 283 283 284 285 285 286
245 238 235 227 219 200 214 226 228 221 215 211 203 198 192 208 210 213 223 231 236 245 254 253 251 252 260 265 272 279 286 301 306 295 288 284 283 281 283 286 288 291 292
252 237 226 217 210 204 204 207 206 203 211 212 207 199 192 195 204 210 221 226 231 241 252 253 250 253 261 273 283 293 335 329 303 283 282 286 288 290 287 285 287 292 289
236 225 213 209 212 210 208 202 202 201 200 204 205 198 198 201 208 210 210 217 232 231 239 245 248 248 260 271 294 334 24 350 315 305 275 274 284 290 295 293 294 298 296
227 220 219 220 221 217 210 195 192 196 196 197 201 206 206 201 201 206 205 202 216 216 224 233 246 253 271 264 299 18 59 353 314 305 287 277 284 296 302 296 300 302 305